Location: Brasstown Bald
(34.8693°N, 83.8103°W)
Time: 16:19:07
(UTC-05:00)

Amateur Radio Satellites - All Passes

Search period start: 20 November 2017 15:49
Search period end: 21 November 2017 15:49
Location: Brasstown Bald, 34.8693°N, 83.8103°W

Satellite Date Start Highest point End Downlink Frequencies (MHz)
Time Altitude Azimuth
AO-7 20 Nov 16:04:29 16:12:17 45° 259° (W) 16:20:10 .
BEESAT 20 Nov 16:11:28 16:16:14 78° 284° (WNW) 16:20:57 436.000
ITUPSAT 1 20 Nov 16:20:39 16:25:21 63° 286° (WNW) 16:30:02 437.325
JUGNU 20 Nov 16:24:47 16:28:30 17° 176° (S) 16:32:13 437.505
DOVE 4 20 Nov 16:26:01 16:30:40 43° 72° (ENE) 16:35:34 437.250
FALCONSAT 3 20 Nov 16:40:10 16:41:05 11° 213° (SSW) 16:41:59 435.103
MOZHAYETS 4 20 Nov 16:41:32 16:45:16 25° 290° (WNW) 16:49:00
CUBESAT XI-V 20 Nov 16:50:06 16:54:50 84° 104° (ESE) 16:59:31 437.345
CUTE-I 20 Nov 16:56:19 16:59:38 17° 64° (ENE) 17:02:58 437.470
XW-2D 20 Nov 17:02:17 17:04:29 15° 69° (ENE) 17:06:43 145.860 - 145.880
KKS-1 20 Nov 17:02:24 17:05:53 22° 96° (E) 17:09:19 437.445
HO-68 20 Nov 17:02:39 17:05:18 12° 56° (NE) 17:07:56 435.675
ITAMSAT 1 20 Nov 17:12:22 17:12:54 10° 269° (W) 17:13:27 435.822/435.867
XW-2B 20 Nov 17:16:18 17:19:12 22° 71° (ENE) 17:22:07 145.730 - 145.750
YUBILEINY 20 Nov 17:22:58 17:31:52 79° 83° (E) 17:40:41 435.215
STARS 20 Nov 17:29:23 17:32:09 16° 94° (E) 17:34:53 437.465
NUDT-PHONESAT 20 Nov 17:34:25 17:37:25 25° 72° (ENE) 17:40:26 437.300
XW-2C 20 Nov 17:41:03 17:44:39 48° 75° (ENE) 17:48:15 145.795 - 145.815
LilacSat-2 20 Nov 17:42:02 17:45:41 54° 76° (ENE) 17:49:22 437.200
XW-2F 20 Nov 17:52:22 17:56:02 64° 76° (ENE) 17:59:43 145.980 - 146.000
SEEDS 20 Nov 18:03:19 18:04:27 11° 66° (ENE) 18:05:34 437.485
DOVE 4 20 Nov 18:05:07 18:08:31 18° 268° (W) 18:12:02 437.250
SRMSAT 20 Nov 18:08:24 18:11:22 14° 169° (S) 18:14:21 437.500
JUGNU 20 Nov 18:13:11 18:16:47 17° 186° (S) 18:20:23 437.505
CUBEBUG 2 20 Nov 18:17:51 18:21:01 19° 69° (ENE) 18:24:07 437.445
KAITUO 1B 20 Nov 18:21:34 18:25:11 64° 259° (W) 18:28:51 145.475/437.950
RS-15 20 Nov 18:30:11 18:41:57 56° 110° (ESE) 18:53:45 29.354- 29.394
CUTE-I 20 Nov 18:33:56 18:39:10 55° 259° (W) 18:44:27 437.470
XW-2D 20 Nov 18:35:11 18:38:23 27° 263° (W) 18:41:38 145.860 - 145.880
KKS-1 20 Nov 18:38:34 18:42:22 28° 290° (WNW) 18:46:08 437.445
HO-68 20 Nov 18:44:39 18:51:48 76° 72° (ENE) 18:59:01 435.675
XW-2B 20 Nov 18:50:35 18:53:16 19° 265° (W) 18:55:58 145.730 - 145.750
CUTE 1.7 + AOD 2 20 Nov 19:03:38 19:07:47 75° 257° (WSW) 19:12:01 437.475
STARS 20 Nov 19:04:33 19:08:34 36° 288° (WNW) 19:12:32 437.465
STRAND 1 20 Nov 19:06:02 19:09:45 20° 95° (E) 19:13:26 437.568
XW-2A 20 Nov 19:07:20 19:10:09 26° 73° (ENE) 19:12:58 145.665 - 145.685
ZACube-1 20 Nov 19:08:14 19:11:09 18° 69° (ENE) 19:14:03 437.345
NUDT-PHONESAT 20 Nov 19:08:58 19:11:13 16° 266° (W) 19:13:29 437.300
UWE-3 20 Nov 19:14:55 19:19:09 43° 74° (ENE) 19:23:19 435.000/436.395/437.385
YUBILEINY 20 Nov 19:22:07 19:27:32 18° 280° (W) 19:32:57 435.215
SEEDS 20 Nov 19:35:34 19:39:36 51° 260° (W) 19:43:42 437.485
FO-29 20 Nov 19:41:25 19:45:50 16° 88° (E) 19:50:05 435.910
AAUSAT CUBESAT 2 20 Nov 19:44:12 19:48:18 78° 77° (ENE) 19:52:27 437.432
nSIGHT-1 20 Nov 19:51:53 19:53:36 14° 127° (SE) 19:55:19 .
CUBEBUG 2 20 Nov 19:53:04 19:57:20 36° 262° (W) 20:01:31 437.445
SRMSAT 20 Nov 19:55:51 19:59:48 18° 179° (S) 20:03:47 437.500
AO-73 20 Nov 19:58:07 20:02:23 61° 76° (ENE) 20:06:35 145.935
JUGNU 20 Nov 20:04:28 20:05:01 10° 195° (SSW) 20:05:33 437.505
Oscar 11 20 Nov 20:15:14 20:19:28 63° 76° (ENE) 20:23:44 .
DELFI C3 20 Nov 20:23:09 20:24:56 13° 67° (ENE) 20:26:43 145.870
ISS 20 Nov 20:32:32 20:35:28 32° 132° (SE) 20:38:26 437.550
HO-68 20 Nov 20:35:50 20:40:05 16° 268° (W) 20:44:23 435.675
XW-2A 20 Nov 20:41:36 20:42:51 12° 266° (W) 20:44:06 145.665 - 145.685
RS-15 20 Nov 20:43:12 20:54:44 44° 311° (NW) 21:06:17 29.354- 29.394
ZACube-1 20 Nov 20:43:15 20:47:11 32° 263° (W) 20:51:02 437.345
STRAND 1 20 Nov 20:44:17 20:49:01 39° 289° (WNW) 20:53:43 437.568
UWE-3 20 Nov 20:53:24 20:55:44 14° 267° (W) 20:58:02 435.000/436.395/437.385
FO-29 20 Nov 21:23:45 21:31:38 85° 286° (WNW) 21:38:58 435.910
nSIGHT-1 20 Nov 21:26:29 21:29:32 42° 321° (NW) 21:32:37 .
EO-88 20 Nov 21:33:45 21:37:11 44° 75° (ENE) 21:40:39 145.990 - 145.960
Max Valier Satellite 20 Nov 21:33:55 21:37:33 69° 77° (ENE) 21:41:11 145.860
SRMSAT 20 Nov 21:44:51 21:48:15 16° 189° (S) 21:51:41 437.500
DELFI C3 20 Nov 21:55:35 21:59:16 39° 262° (W) 22:03:01 145.870
PRISM 20 Nov 22:00:57 22:02:40 12° 93° (E) 22:04:23 437.425
LO-87 20 Nov 22:02:41 22:03:32 11° 68° (ENE) 22:04:22 145.935 - 145.965
SO-50 20 Nov 22:07:03 22:11:30 84° 121° (ESE) 22:16:00 436.795
ISS 20 Nov 22:09:22 22:11:59 22° 327° (NNW) 22:14:36 437.550
NO-84 20 Nov 22:22:17 22:25:49 24° 37° (NE) 22:29:19 435.350 FM
UNISAT 6 20 Nov 22:25:32 22:29:49 88° 110° (ESE) 22:34:03 437.425
TIGRISAT 20 Nov 22:30:03 22:34:18 89° 99° (E) 22:38:33 435.000
ESTCUBE 1 20 Nov 22:58:31 23:02:46 45° 73° (ENE) 23:07:03 437.505/2401.250
RS-15 20 Nov 23:05:07 23:11:49 16° 342° (NNW) 23:18:26 29.354- 29.394
FO-29 20 Nov 23:11:07 23:15:23 16° 302° (WNW) 23:19:34 435.910
VELOX 1 20 Nov 23:23:44 23:25:34 12° 65° (ENE) 23:27:25 145.980
LO-87 20 Nov 23:33:08 23:36:31 38° 261° (W) 23:39:55 145.935 - 145.965
PRISM 20 Nov 23:34:09 23:38:06 42° 287° (WNW) 23:42:00 437.425
DUCHIFAT 1 20 Nov 23:49:18 23:52:05 17° 94° (E) 23:54:51 145.980
SO-50 20 Nov 23:51:22 23:52:33 11° 316° (NW) 23:53:44 436.795
EO-79 20 Nov 23:55:23 23:58:59 27° 97° (E) 00:02:34 145.935-145.965
NANOSAT C BR1 20 Nov 23:58:58 00:02:31 26° 97° (E) 00:06:02 145.865
NO-84 20 Nov 23:59:16 00:03:18 42° 233° (SW) 00:07:14 435.350 FM
O/OREOS (USA 219) 21 Nov 00:09:00 00:13:33 83° 253° (WSW) 00:18:03 437.305
AIST 2D 21 Nov 00:09:59 00:13:21 42° 285° (WNW) 00:16:41 435.315
POLYITAN 1 21 Nov 00:10:16 00:14:15 42° 99° (E) 00:18:12 437.675
PCSat 21 Nov 00:11:34 00:16:45 49° 111° (ESE) 00:21:57 145.827
SPROUT 21 Nov 00:21:35 00:25:53 86° 260° (W) 00:30:11 437.525
QB50P2 21 Nov 00:33:23 00:37:35 85° 286° (WNW) 00:41:46 145.880/145.840
ESTCUBE 1 21 Nov 00:37:37 00:39:45 13° 267° (W) 00:41:55 437.505/2401.250
BUGSAT 1 21 Nov 00:43:43 00:46:14 16° 94° (E) 00:48:44 437.445
UKube-1 21 Nov 00:52:36 00:55:16 16° 67° (ENE) 00:57:56 .
VELOX 1 21 Nov 00:57:11 01:01:30 53° 260° (W) 01:05:51 145.980
DUCHIFAT 1 21 Nov 01:24:06 01:27:45 30° 288° (WNW) 01:31:23 145.980
RS-15 21 Nov 01:24:53 01:31:47 16° 20° (NNE) 01:38:29 29.354- 29.394
50 SAT 21 Nov 01:27:19 01:30:33 85° 76° (ENE) 01:33:48 437.505
EO-79 21 Nov 01:31:30 01:34:32 20° 291° (WNW) 01:37:32 145.935-145.965
NANOSAT C BR1 21 Nov 01:34:57 01:38:01 20° 291° (WNW) 01:41:05 145.865
DX 1 21 Nov 01:43:43 01:48:04 74° 257° (WSW) 01:52:27 434.975-435.025
POLYITAN 1 21 Nov 01:47:35 01:49:36 13° 293° (WNW) 01:51:38 437.675
Oscar 19 21 Nov 01:52:16 01:57:21 55° 101° (E) 02:02:24 437.125/150
PCSat 21 Nov 01:56:18 02:00:23 21° 308° (NW) 02:04:28 145.827
MOZHAYETS 4 21 Nov 02:03:48 02:06:46 17° 67° (ENE) 02:09:43
Gurwin Techsat 1B 21 Nov 02:14:42 02:20:00 64° 102° (ESE) 02:25:15 435.225
BUGSAT 1 21 Nov 02:18:05 02:21:37 30° 288° (WNW) 02:25:07 437.445
AO-7 21 Nov 02:21:23 02:23:40 11° 91° (E) 02:25:58 .
UKube-1 21 Nov 02:26:57 02:30:56 37° 261° (W) 02:34:58 .
BEESAT 2 21 Nov 02:41:57 02:43:33 12° 108° (ESE) 02:45:07 435.950
ISS 21 Nov 03:03:49 03:05:24 13° 27° (NNE) 03:06:59 437.550
BEESAT 3 21 Nov 03:05:59 03:09:56 79° 300° (WNW) 03:13:57 437.485
BEESAT 21 Nov 03:14:08 03:18:54 83° 76° (ENE) 03:23:42 436.000
ITUPSAT 1 21 Nov 03:23:38 03:28:25 80° 257° (WSW) 03:33:14 437.325
AO-85 21 Nov 03:26:36 03:28:25 13° 108° (ESE) 03:30:16 145.980
M-CUBED/EXP-1 PRIME 21 Nov 03:32:03 03:36:39 82° 287° (WNW) 03:41:17 437.505
Oscar 19 21 Nov 03:33:09 03:36:10 16° 295° (WNW) 03:39:10 437.125/150
RS-15 21 Nov 03:37:00 03:48:21 48° 51° (NE) 03:59:03 29.354- 29.394
MOZHAYETS 4 21 Nov 03:39:19 03:43:34 38° 262° (W) 03:47:50
ITAMSAT 1 21 Nov 03:44:22 03:49:06 34° 98° (E) 03:53:47 435.822/435.867
CUBESAT XI-V 21 Nov 03:49:49 03:54:16 54° 74° (ENE) 03:58:46 437.345
nSIGHT-1 21 Nov 03:55:52 03:58:54 40° 38° (NE) 04:01:56 .
Gurwin Techsat 1B 21 Nov 03:56:36 03:59:20 14° 297° (WNW) 04:02:03 435.225
KKS-1 21 Nov 03:58:10 04:00:36 15° 66° (ENE) 04:03:02 437.445
AO-7 21 Nov 04:09:06 04:17:29 76° 106° (ESE) 04:25:50 .
BEESAT 2 21 Nov 04:16:57 04:20:48 45° 302° (WNW) 04:24:42 435.950
STARS 21 Nov 04:24:52 04:25:36 10° 64° (ENE) 04:26:20 437.465
YUBILEINY 21 Nov 04:27:17 04:32:17 17° 79° (E) 04:37:17 435.215
DOVE 4 21 Nov 04:29:44 04:32:49 16° 91° (E) 04:35:50 437.250
ISS 21 Nov 04:38:59 04:42:15 81° 224° (SW) 04:45:29 437.550
AO-85 21 Nov 05:04:46 05:08:22 37° 304° (WNW) 05:12:07 145.980
ITAMSAT 1 21 Nov 05:24:12 05:28:20 24° 293° (WNW) 05:32:26 435.822/435.867
CUBESAT XI-V 21 Nov 05:30:21 05:31:55 12° 268° (W) 05:33:30 437.345
KKS-1 21 Nov 05:32:26 05:36:43 45° 260° (W) 05:41:02 437.445
nSIGHT-1 21 Nov 05:33:07 05:34:52 14° 232° (SW) 05:36:35 .
RS-15 21 Nov 05:49:50 06:00:36 46° 252° (WSW) 06:10:55 29.354- 29.394
KAITUO 1B 21 Nov 05:56:47 05:59:00 15° 94° (E) 06:01:12 145.475/437.950
STARS 21 Nov 05:56:57 06:01:19 64° 258° (WSW) 06:05:45 437.465
AO-7 21 Nov 06:03:25 06:09:21 22° 303° (WNW) 06:15:19 .
DOVE 4 21 Nov 06:05:48 06:10:45 48° 287° (WNW) 06:15:26 437.250
XW-2D 21 Nov 06:10:14 06:13:43 34° 98° (E) 06:17:12 145.860 - 145.880
HO-68 21 Nov 06:18:15 06:22:28 16° 92° (E) 06:26:37 435.675
STRAND 1 21 Nov 06:18:47 06:22:37 21° 67° (ENE) 06:26:27 437.568
YUBILEINY 21 Nov 06:19:07 06:27:52 83° 276° (W) 06:36:43 435.215
XW-2B 21 Nov 06:24:52 06:28:35 51° 100° (E) 06:32:18 145.730 - 145.750
NUDT-PHONESAT 21 Nov 06:40:24 06:44:04 55° 101° (E) 06:47:42 437.300
SO-50 21 Nov 06:41:31 06:45:37 30° 54° (NE) 06:49:46 436.795
XW-2C 21 Nov 06:50:24 06:54:11 67° 283° (WNW) 06:57:58 145.795 - 145.815
CUTE 1.7 + AOD 2 21 Nov 06:52:10 06:55:37 23° 96° (E) 06:59:02 437.475
LilacSat-2 21 Nov 06:52:15 06:56:02 58° 284° (WNW) 06:59:48 437.200
CUTE-I 21 Nov 06:54:13 06:59:36 79° 103° (ESE) 07:04:56 437.470
XW-2F 21 Nov 07:01:17 07:04:59 51° 285° (WNW) 07:08:40 145.980 - 146.000
SEEDS 21 Nov 07:22:34 07:26:22 31° 97° (E) 07:30:09 437.485
KAITUO 1B 21 Nov 07:29:42 07:32:57 28° 288° (WNW) 07:36:13 145.475/437.950
AAUSAT CUBESAT 2 21 Nov 07:30:40 07:33:12 16° 94° (E) 07:35:42 437.432
FO-29 21 Nov 07:32:04 07:37:43 31° 65° (ENE) 07:43:56 435.910
XW-2D 21 Nov 07:45:39 07:47:32 13° 292° (WNW) 07:49:25 145.860 - 145.880
CUBEBUG 2 21 Nov 07:46:49 07:50:56 58° 100° (E) 07:54:59 437.445
AO-73 21 Nov 07:50:40 07:52:51 14° 93° (E) 07:55:02 145.935
STRAND 1 21 Nov 07:56:41 08:01:29 39° 261° (W) 08:06:18 437.568
HO-68 21 Nov 08:03:34 08:10:45 76° 287° (WNW) 08:17:53 435.675
XW-2A 21 Nov 08:03:48 08:07:03 44° 100° (E) 08:10:17 145.665 - 145.685
Oscar 11 21 Nov 08:07:01 08:09:31 15° 93° (E) 08:12:01 .
YUBILEINY 21 Nov 08:21:53 08:26:00 14° 296° (WNW) 08:30:10 435.215
SO-50 21 Nov 08:22:04 08:25:57 26° 248° (WSW) 08:29:51 436.795
CUTE 1.7 + AOD 2 21 Nov 08:27:53 08:31:19 24° 289° (WNW) 08:34:45 437.475
ZACube-1 21 Nov 08:34:05 08:38:11 57° 101° (E) 08:42:17 437.345
CUTE-I 21 Nov 08:37:05 08:38:54 12° 298° (WNW) 08:40:41 437.470
UWE-3 21 Nov 08:43:50 08:47:50 50° 285° (WNW) 08:51:51 435.000/436.395/437.385
SEEDS 21 Nov 08:58:53 09:01:46 18° 291° (WNW) 09:04:39 437.485
PCSat 21 Nov 09:03:24 09:07:26 21° 52° (NE) 09:11:26 145.827
AAUSAT CUBESAT 2 21 Nov 09:04:54 09:08:42 34° 287° (WNW) 09:12:28 437.432
FO-29 21 Nov 09:16:26 09:22:26 42° 264° (W) 09:29:14 435.910
UNISAT 6 21 Nov 09:20:27 09:24:53 50° 74° (ENE) 09:29:15 437.425
TIGRISAT 21 Nov 09:24:47 09:29:13 51° 75° (ENE) 09:33:36 435.000
AO-73 21 Nov 09:25:22 09:29:10 37° 287° (WNW) 09:33:01 145.935
FALCONSAT 3 21 Nov 09:28:16 09:31:30 29° 155° (SSE) 09:34:44 435.103
DELFI C3 21 Nov 09:35:30 09:39:03 30° 97° (E) 09:42:33 145.870
Oscar 11 21 Nov 09:41:44 09:45:45 38° 287° (WNW) 09:49:45 .
HO-68 21 Nov 09:54:36 09:57:16 12° 304° (NW) 09:59:56 435.675
PRISM 21 Nov 10:19:15 10:23:21 80° 78° (ENE) 10:27:30 437.425
EO-88 21 Nov 10:38:33 10:42:13 83° 282° (WNW) 10:45:52 145.990 - 145.960
Max Valier Satellite 21 Nov 10:40:28 10:44:00 50° 285° (WNW) 10:47:34 145.860
AIST 2D 21 Nov 10:40:36 10:43:42 33° 74° (ENE) 10:46:51 435.315
EO-79 21 Nov 10:45:35 10:47:53 14° 67° (ENE) 10:50:11 145.935-145.965
PCSat 21 Nov 10:45:51 10:51:05 50° 249° (WSW) 10:56:16 145.827
NANOSAT C BR1 21 Nov 10:48:56 10:51:05 14° 67° (ENE) 10:53:13 145.865
ESTCUBE 1 21 Nov 10:55:59 10:57:58 13° 92° (E) 10:59:57 437.505/2401.250
UNISAT 6 21 Nov 10:59:45 11:01:46 13° 267° (W) 11:03:47 437.425
POLYITAN 1 21 Nov 10:59:54 11:03:06 21° 70° (ENE) 11:06:18 437.675
LO-87 21 Nov 11:03:34 11:06:06 18° 95° (E) 11:08:36 145.935 - 145.965
TIGRISAT 21 Nov 11:04:10 11:06:06 12° 267° (W) 11:08:02 435.000
FALCONSAT 3 21 Nov 11:06:42 11:10:22 83° 170° (S) 11:14:05 435.103
DELFI C3 21 Nov 11:10:57 11:13:30 16° 291° (WNW) 11:16:01 145.870
QB50P2 21 Nov 11:22:16 11:26:18 43° 74° (ENE) 11:30:20 145.880/145.840
BEESAT 3 21 Nov 11:26:16 11:29:13 20° 52° (NE) 11:32:08 437.485
SPROUT 21 Nov 12:11:14 12:14:21 20° 95° (E) 12:17:28 437.525
DUCHIFAT 1 21 Nov 12:11:28 12:15:40 68° 258° (WSW) 12:19:52 145.980
AIST 2D 21 Nov 12:16:37 12:16:58 10° 268° (W) 12:17:18 435.315
EO-79 21 Nov 12:19:15 12:23:15 40° 261° (W) 12:27:15 145.935-145.965
NANOSAT C BR1 21 Nov 12:22:22 12:26:22 42° 261° (W) 12:30:24 145.865
ESTCUBE 1 21 Nov 12:30:37 12:34:59 49° 286° (WNW) 12:39:21 437.505/2401.250
POLYITAN 1 21 Nov 12:35:07 12:38:42 26° 263° (W) 12:42:17 437.675
LO-87 21 Nov 12:36:46 12:39:22 19° 289° (WNW) 12:41:57 145.935 - 145.965
BEESAT 2 21 Nov 12:37:30 12:41:11 33° 56° (NE) 12:44:47 435.950
O/OREOS (USA 219) 21 Nov 12:40:12 12:43:12 17° 100° (E) 12:46:11 437.305
FALCONSAT 3 21 Nov 12:45:49 12:49:31 84° 5° (N) 12:53:13 435.103
VELOX 1 21 Nov 12:50:27 12:54:33 36° 98° (E) 12:58:37 145.980
QB50P2 21 Nov 13:00:24 13:02:14 12° 267° (W) 13:04:04 145.880/145.840
BUGSAT 1 21 Nov 13:03:16 13:07:29 74° 259° (W) 13:11:39 437.445
BEESAT 3 21 Nov 13:03:23 13:06:44 27° 248° (WSW) 13:10:02 437.485
Oscar 19 21 Nov 13:05:44 13:10:44 57° 73° (ENE) 13:15:44 437.125/150
AO-7 21 Nov 13:16:46 13:20:54 15° 52° (NE) 13:25:04 .
Gurwin Techsat 1B 21 Nov 13:32:19 13:37:36 74° 76° (ENE) 13:42:55 435.225
DX 1 21 Nov 13:35:42 13:39:14 24° 96° (E) 13:42:46 434.975-435.025
AO-85 21 Nov 13:37:31 13:42:17 64° 60° (ENE) 13:47:22 145.980
SPROUT 21 Nov 13:46:36 13:50:12 27° 289° (WNW) 13:53:47 437.525
M-CUBED/EXP-1 PRIME 21 Nov 14:14:50 14:18:16 66° 71° (ENE) 14:22:00 437.505
BEESAT 2 21 Nov 14:16:03 14:18:35 16° 251° (WSW) 14:21:06 435.950
UKube-1 21 Nov 14:16:48 14:20:56 43° 100° (E) 14:25:02 .
O/OREOS (USA 219) 21 Nov 14:18:00 14:22:14 37° 294° (WNW) 14:26:32 437.305
50 SAT 21 Nov 14:19:39 14:22:51 67° 283° (WNW) 14:26:01 437.505
JUGNU 21 Nov 14:22:47 14:25:05 12° 167° (SSE) 14:27:23 437.505
FALCONSAT 3 21 Nov 14:25:00 14:28:32 45° 200° (SSW) 14:32:04 435.103
VELOX 1 21 Nov 14:27:42 14:30:40 18° 292° (WNW) 14:33:37 145.980
Oscar 19 21 Nov 14:47:50 14:50:20 14° 267° (W) 14:52:53 437.125/150
ITAMSAT 1 21 Nov 14:58:55 15:03:44 39° 71° (ENE) 15:08:34 435.822/435.867
AO-7 21 Nov 15:04:03 15:12:19 77° 70° (ENE) 15:20:36 .
NO-84 21 Nov 15:10:50 15:14:22 79° 315° (NW) 15:18:15 435.350 FM
DX 1 21 Nov 15:11:43 15:15:18 25° 290° (WNW) 15:18:51 434.975-435.025
Gurwin Techsat 1B 21 Nov 15:16:42 15:18:00 11° 269° (W) 15:19:19 435.225
BEESAT 21 Nov 15:18:02 15:22:02 26° 97° (E) 15:26:00 436.000
AO-85 21 Nov 15:19:58 15:22:17 13° 252° (WSW) 15:24:40 145.980
ITUPSAT 1 21 Nov 15:27:42 15:31:59 33° 98° (E) 15:36:14 437.325
DOVE 4 21 Nov 15:32:36 15:34:35 12° 63° (ENE) 15:36:35 437.250
MOZHAYETS 4 21 Nov 15:37:05 15:41:37 61° 101° (E) 15:46:07
